Hourly Weather Roundup
Issued by NWS Central Illinois

Home | Current Version | Previous Version | Text Only | Print | Product List | Glossary On
Versions: 1 2 3 4 5 6 7 8 9 10 11 12 13 14 15 16 17 18 19 20 21 22 23 24 25 26 27 28 29 30 31 32 33 34 35 36 37 38 39 40 41 42 43 44 45 46 47 48 49 50
000
NZUS43 KILX 230210
HWRILX

AREA WEATHER ROUNDUP
NATIONAL WEATHER SERVICE, LINCOLN IL
900 PM CDT FRI AUG 22 2014


CITY           SKY/WX    TMP DP  RH WIND       PRES   REMARKS
BLOOMINGTON    CLEAR     76  72  87 SE7       30.00R
CHAMPAIGN      PTCLDY    76  74  93 E5        29.98R
DECATUR        PTCLDY    79  76  90 E5        29.97R HX  83
FLORA          PTCLDY    80  78  95 E3        29.97R HX  86
GALESBURG      PTCLDY    78  75  91 CALM      29.96S HX  80
JACKSONVILLE   PTCLDY    82  79  92 E5        29.96R HX  91
LACON          PTCLDY    78  75  89 SE3       29.96R HX  81
LAWRENCEVILLE  CLOUDY    80  78  94 CALM      29.98R FOG     HX  88
LITCHFIELD     PTCLDY    79  77  93 E5        29.96R HX  84
$$


CITY           SKY/WX    TMP DP  RH WIND       PRES   REMARKS
LINCOLN        CLOUDY    80  76  88 CALM      29.94R HX  86
MACOMB         MOCLDY    79  77  94 N5        29.97R HX  83
MATTOON        CLOUDY    79  77  94 CALM      29.97R HX  83
MT CARMEL AP   MOCLDY    81  79  94 E3        29.97R HX  89
OLNEY-NOBLE AP PTCLDY    79  77  94 CALM      29.98R FOG     HX  83
PARIS          CLOUDY    76  75  98 CALM      29.99R
PEORIA         PTCLDY    81  74  79 CALM      29.96R HX  86
PONTIAC        PTCLDY    75  75 100 E3        29.98R
RANTOUL        CLEAR     78  73  85 CALM      30.00R HX  80
ROBINSON       RAIN      80  79  96 S3        29.98R HX  88
SPRINGFIELD    PTCLDY    80  77  90 CALM      29.96R HX  87
TAYLORVILLE    PTCLDY    79  77  94 SE5       29.97R HX  83
$$

...REGIONAL REPORTS...


CITY           SKY/WX    TMP DP  RH WIND       PRES   REMARKS
CHICAGO O`HARE MOCLDY    80  71  74 SW3       29.96R HX  84
KANKAKEE       CLEAR     73  73  97 S3        29.99R
MOLINE         CLEAR     79  74  84 CALM      29.96R HX  82
MOUNT VERNON   PTCLDY    79  73  83 CALM      29.96R HX  82
PITTSFIELD     CLEAR     80  77  89 E3        29.95R HX  87
QUINCY         CLEAR     80  77  90 NE5       29.94R HX  87
ROCKFORD       MOCLDY    77  73  87 SW5       29.98R
$$


CITY           SKY/WX    TMP DP  RH WIND       PRES   REMARKS
BURLINGTON     PTCLDY    80  78  94 CALM      29.95R HX  88
CEDAR RAPIDS   MOCLDY    76  75  97 SE3       29.96R
DES MOINES     CLOUDY    81  75  82 CALM      29.95R HX  87
KIRKSVILLE     PTCLDY    81  77  88 E5        29.94S HX  88
OTTUMWA        MOCLDY    80  77  90 CALM      29.96R HX  87
ST LOUIS       MOCLDY    87  76  69 E3        29.93R HX  97
$$


CITY           SKY/WX    TMP DP  RH WIND       PRES   REMARKS
TERRE HAUTE    PTCLDY    78  75  90 CALM      29.98R HX  81
EVANSVILLE     PTCLDY    82  77  84 CALM      29.98R HX  90
INDIANAPOLIS   MOCLDY    79  70  74 N3        30.00R HX  82
LAFAYETTE      CLEAR     74  73  97 CALM      29.99R
MADISON        PTCLDY    78  73  84 CALM      29.96R HX  81
MILWAUKEE      FOG       70  69  97 NE3       29.98R VSB 1/2
$$




USA.gov is the U.S. government's official web portal to all federal, state and local government web resources and services.